DW4152 Weather Reports


time (UTC)temp
F
wind
direction
speed
knots
gust
knots
rain 1hr
in
rain 24hr
in
rain mn
in
humidity
%
barometer
mb
20260505003002 70 328 0.0 0.9 0.00 0.00 0.00 48 1012.7
20260505001503 72 328 0.0 0.9 0.00 0.00 0.00 46 1012.7
20260505000109 73 328 0.0 0.9 0.00 0.00 0.00 45 1012.6
20260504234613 75 328 0.0 0.0 0.00 0.00 0.00 43 1012.5
20260504233102 75 328 0.0 0.0 0.00 0.00 0.00 40 1012.4
20260504231559 76 329 0.0 0.9 0.00 0.00 0.00 40 1012.4
20260504230059 77 329 0.0 1.7 0.00 0.00 0.00 39 1012.4
20260504224600 77 183 0.0 0.0 0.00 0.00 0.00 39 1012.4
20260504223058 78 277 0.0 0.0 0.00 0.00 0.00 37 1012.3
20260504221557 79 233 0.0 0.0 0.00 0.00 0.00 38 1012.3
20260504214558 79 254 0.0 0.0 0.00 0.00 0.00 37 1012.3
20260504213109 80 251 0.0 0.9 0.00 0.00 0.00 37 1012.3
20260504211556 80 253 0.0 0.0 0.00 0.00 0.00 38 1012.4
20260504210054 80 262 0.0 0.0 0.00 0.00 0.00 37 1012.3
20260504204601 81 285 0.0 0.0 0.00 0.00 0.00 36 1012.5
20260504203051 81 285 0.0 0.0 0.00 0.00 0.00 35 1012.6
20260504201550 82 246 0.0 0.0 0.00 0.00 0.00 35 1012.8
20260504200050 83 228 0.0 0.0 0.00 0.00 0.00 35 1012.9
20260504194547 82 248 0.0 0.0 0.00 0.00 0.00 34 1013.2
20260504193055 82 206 0.0 0.0 0.00 0.00 0.00 33 1013.5
20260504191542 82 228 0.0 0.0 0.00 0.00 0.00 35 1013.6
20260504190042 82 207 0.0 0.0 0.00 0.00 0.00 34 1013.9
20260504184542 81 213 0.0 0.0 0.00 0.00 0.00 34 1013.9
20260504183041 80 214 0.0 0.9 0.00 0.00 0.00 35 1014.0
20260504181536 80 244 0.0 0.0 0.00 0.00 0.00 35 1014.2
20260504180036 79 244 0.0 0.0 0.00 0.00 0.00 35 1014.2
20260504174528 78 168 0.0 0.0 0.00 0.00 0.00 35 1014.6
20260504173025 78 215 0.0 0.0 0.00 0.00 0.00 33 1014.6
20260504171522 77 184 0.0 0.9 0.00 0.00 0.00 34 1014.9
20260504100111 43 229 0.0 0.0 0.00 0.00 0.00 93 1016.6
20260504081546 44 229 0.0 0.0 0.00 0.00 0.00 91 1016.5
20260504044534 46 229 0.0 0.0 0.00 0.00 0.00 81 1016.7
20260504043037 47 229 0.0 0.0 0.00 0.00 0.00 80 1016.7
20260504041523 47 229 0.0 0.0 0.00 0.00 0.00 79 1016.6
20260504040023 48 229 0.0 0.0 0.00 0.00 0.00 80 1016.8
20260504034520 49 229 0.0 0.0 0.00 0.00 0.00 80 1016.8
20260504033019 49 229 0.0 0.0 0.00 0.00 0.00 79 1016.6
20260504031520 49 229 0.0 0.0 0.00 0.00 0.00 76 1016.7
20260504030019 50 229 0.0 0.0 0.00 0.00 0.00 74 1016.7
20260504024519 50 229 0.0 0.0 0.00 0.00 0.00 74 1016.5
20260504023018 51 229 0.0 0.0 0.00 0.00 0.00 78 1016.5
20260504021519 52 229 0.0 0.0 0.00 0.00 0.00 75 1016.4
20260504020017 52 229 0.0 0.0 0.00 0.00 0.00 74 1016.1
20260504014517 53 229 0.0 0.0 0.00 0.00 0.00 72 1016.1
20260504013019 53 229 0.0 0.0 0.00 0.00 0.00 69 1016.1
20260504011516 54 229 0.0 0.0 0.00 0.00 0.00 64 1016.1
20260504010014 55 229 0.0 0.0 0.00 0.00 0.00 63 1016.0
20260504004518 56 229 0.0 0.0 0.00 0.00 0.00 54 1015.8